PST,Max TemperatureF,Mean TemperatureF,Min TemperatureF,Max Dew PointF,MeanDew PointF,Min DewpointF,Max Humidity, Mean Humidity, Min Humidity, Max Sea Level PressureIn, Mean Sea Level PressureIn, Min Sea Level PressureIn, Max VisibilityMiles, Mean VisibilityMiles, Min VisibilityMiles, Max Wind SpeedMPH, Mean Wind SpeedMPH, Max Gust SpeedMPH,PrecipitationIn, CloudCover, Events, WindDirDegrees
2012-1-1,52,34,15,6,3,-2,59,35,11,30.67,30.55,30.45,10,10,10,17,8,21,0.00,0,,168
2012-1-2,63,39,15,15,7,-1,67,38,8,30.61,30.45,30.27,10,10,10,17,8,22,0.00,0,,172
2012-1-3,60,41,21,10,8,5,54,33,11,30.53,30.39,30.26,10,10,10,17,7,20,0.00,0,,167
2012-1-4,63,41,19,14,11,7,62,38,14,30.63,30.50,30.38,10,10,10,16,8,20,0.00,0,,166
2012-1-5,62,42,21,17,12,10,68,42,16,30.44,30.26,30.09,10,10,10,17,10,21,0.00,0,,187
2012-1-6,56,37,17,18,10,5,74,44,13,30.25,30.08,29.94,10,10,10,16,8,20,0.00,2,,199
2012-1-7,35,25,15,27,20,11,88,64,39,30.39,30.15,29.93,10,8,1,20,10,25,0.01,6,Snow,323
2012-1-8,41,22,3,19,12,0,88,63,37,30.53,30.47,30.36,10,10,10,22,7,25,0.00,0,Rain,22
2012-1-9,49,31,13,25,17,10,92,66,39,30.57,30.43,30.31,10,10,10,14,6,17,0.00,0,,162
2012-1-10,56,36,16,26,16,9,91,57,22,30.33,30.20,30.06,10,10,10,15,8,18,0.00,0,,237
2012-1-11,39,24,8,15,8,4,83,55,27,30.40,30.31,30.14,10,10,10,21,11,25,0.00,0,,77
2012-1-12,40,23,5,5,-3,-10,76,45,14,30.48,30.39,30.30,10,10,10,16,8,20,0.00,0,,167
2012-1-13,52,29,5,-4,-7,-10,54,31,8,30.58,30.44,30.33,10,10,10,18,10,21,0.00,0,,168
2012-1-14,59,37,14,1,-5,-12,46,26,5,30.39,30.20,29.98,10,10,10,18,9,22,0.00,0,,191
2012-1-15,51,40,29,1,-7,-13,24,17,9,29.97,29.81,29.66,10,10,10,31,16,46,0.00,1,,185
2012-1-16,34,17,-1,8,-1,-10,65,46,27,30.34,30.00,29.61,10,10,10,21,10,30,T,2,,268
2012-1-17,38,17,-5,-4,-10,-12,72,46,19,30.45,30.38,30.31,10,10,10,15,11,,0.00,0,,171
2012-1-18,51,34,17,16,9,5,35,27,19,30.21,30.12,30.05,10,10,10,13,4,18,0.00,8,,45
2012-1-19,53,42,31,14,10,6,41,29,16,30.05,29.94,29.84,10,10,10,15,5,20,0.00,7,,189
2012-1-20,50,39,28,27,19,9,75,53,31,30.07,29.91,29.65,10,10,9,33,12,47,T,6,Snow,172
2012-1-21,45,34,22,32,27,14,96,63,30,30.00,29.61,29.42,10,4,0,35,14,44,0.44,7,Fog-Snow,232
2012-1-22,31,17,3,25,19,6,92,78,63,30.21,30.09,29.98,10,7,1,22,8,24,0.05,6,Snow,188
2012-1-23,30,28,25,27,24,18,92,80,68,30.04,29.87,29.77,10,8,0,25,11,30,0.05,8,Fog-Snow,216
2012-1-24,33,19,5,25,17,3,96,79,61,30.48,30.26,30.01,10,7,0,15,4,16,0.00,6,Fog,242
2012-1-25,50,33,16,36,28,15,92,76,60,30.55,30.41,30.30,10,10,10,13,6,13,0.00,3,,190
2012-1-26,51,40,29,36,31,26,92,71,50,30.29,30.17,30.07,10,10,9,15,7,20,0.01,6,Rain-Snow,251
2012-1-27,35,23,10,26,12,5,80,56,32,30.58,30.39,30.16,10,10,10,17,8,21,0.00,0,,336
2012-1-28,45,25,5,13,4,-12,83,46,9,30.73,30.61,30.51,10,10,10,14,7,16,0.00,0,,171
2012-1-29,52,34,15,17,10,6,74,46,17,30.56,30.36,30.12,10,10,10,14,7,15,0.00,0,,170
2012-1-30,49,34,18,20,16,13,84,56,28,30.15,30.07,29.98,10,10,10,15,7,17,0.00,1,,189
2012-1-31,49,32,14,20,15,9,80,52,23,30.26,30.16,30.06,10,10,10,14,8,18,0.00,0,,181